#timestamp,LO_Frequency,Hit,StdDev 
1516863615.9,286046999.8,N
1516863635.7,286046998.4,N
1516863655.6,286046995.0,N
1516863675.4,286046997.9,N
1516863695.2,286047004.4,N
1516863715.1,286046998.6,N
1516863716.0,286046998.6,N
1516863735.8,286046997.5,N
1516863755.7,286046996.7,N
1516863775.5,286046997.2,N
1516863795.3,286046999.3,N
1516863815.2,286047000.7,N
1516863835.9,286046993.9,N
1516863855.7,286046994.2,N
1516863875.6,286047000.7,N
1516863895.4,286047002.6,N
1516863915.3,286047002.1,N
1516863935.1,286046999.3,N
1516863936.0,286046999.3,N
1516863955.8,286047001.1,N
1516863975.7,286046998.5,N
1516863995.5,286046996.7,N
1516864015.3,286046999.4,N
1516864035.2,286046995.8,N
1516864055.0,286046995.5,N
1516864055.9,286046995.5,N
1516864075.8,286046997.0,N
1516864095.6,286047002.5,N
1516864115.4,286046999.1,N
1516864135.3,286047001.9,N
1516864155.1,286047003.0,N
1516864175.9,286047006.4,N
1516864195.7,286047007.2,N
1516864215.5,286047002.6,N
1516864235.4,286047002.2,N
1516864255.2,286047006.0,N
1516864275.0,286047006.7,N
1516864275.9,286047006.7,N
1516864295.8,286047003.7,N
1516864315.6,286047005.9,N
1516864335.5,286047001.3,N
1516864355.3,286047001.8,N
1516864375.1,286047001.5,N
1516864395.9,286047005.8,N
1516864415.7,286047006.8,N
1516864435.5,286047004.0,N
1516864455.4,286047005.1,N
1516864475.2,286047007.0,N
1516864495.1,286047000.8,N
1516864496.0,286047000.8,N
1516864515.8,286046994.9,N
1516864535.6,286046997.1,N
1516864555.5,286046999.8,N
1516864575.3,286047011.9,Y
1516864595.2,286046998.3,P
1516864615.9,286046998.9,N
1516864635.7,286046994.9,P
1516864655.6,286046998.6,N
1516864675.4,286047000.0,N
1516864695.2,286046999.0,N
1516864715.1,286046998.9,N
1516864716.0,286046998.9,N
1516864735.8,286046998.7,N
1516864755.7,286046993.6,Y
1516864775.5,286046997.7,P
1516864795.3,286046996.8,P
1516864815.2,286046998.8,N
1516864835.0,286047000.2,N
1516864835.9,286047000.2,N
1516864855.8,286047000.7,N
1516864875.6,286046999.9,N
1516864895.4,286047001.8,N
1516864915.3,286047003.9,N
1516864935.1,286047003.9,N
1516864955.8,286046998.5,N
1516864975.7,286047002.4,N
1516864995.5,286047001.5,N
1516865015.4,286047004.3,N
1516865035.2,286047001.6,N
1516865055.0,286047006.5,N
1516865055.9,286047006.5,N
1516865075.8,286047005.3,N
1516865095.6,286047002.6,N
1516865115.4,286047000.8,N
1516865135.3,286047001.7,N
1516865155.1,286047001.6,N
1516865175.9,286047004.5,N
1516865195.7,286047001.6,N
1516865215.5,286046998.6,N
1516865235.4,286046998.8,N
1516865255.2,286046999.4,N
1516865275.0,286046999.1,N
1516865276.0,286046999.1,N
1516865295.8,286047001.1,N
1516865315.6,286046997.8,N
1516865335.5,286046993.7,N
1516865355.3,286046995.9,N
1516865375.1,286046994.2,N
1516865395.9,286046997.2,N
1516865415.7,286046996.5,N
1516865435.6,286046995.6,N
1516865455.4,286046997.6,N
1516865475.2,286047001.0,N
1516865495.1,286047000.0,N
1516865496.0,286047000.0,N
1516865515.8,286046998.3,N
1516865535.6,286046997.4,N
1516865555.5,286046999.6,N
1516865575.3,286046999.9,N
1516865595.2,286047000.6,N
1516865615.9,286047001.0,N
1516865635.7,286046996.3,N
1516865655.6,286046996.7,N
1516865675.4,286046993.4,N
1516865695.2,286046997.1,N
1516865715.1,286046999.2,N
1516865716.0,286046999.2,N
1516865735.8,286046998.0,N
1516865755.7,286046989.5,Y
1516865775.5,286046986.7,P
1516865795.3,286046986.4,N
1516865815.2,286046983.6,P
1516865835.0,286046983.3,Y
1516865835.9,286046983.3,P
1516865855.8,286046991.1,P
1516865875.6,286046982.7,P
1516865895.4,286046977.8,Y
1516865915.3,286046981.6,P
1516865935.1,286046978.4,P
1516865955.9,286046980.6,P
1516865975.7,286046982.9,Y
1516865995.5,286047006.8,P
1516866015.4,286047003.4,N
1516866035.2,286047005.3,N
1516866055.0,286047004.7,N
1516866055.9,286047004.7,N
1516866075.8,286047004.3,N
1516866095.6,286047004.4,N
1516866115.5,286047003.7,N
1516866135.3,286047001.8,N
1516866155.1,286047003.2,N
1516866175.9,286047006.5,N
1516866195.7,286047004.6,N
1516866215.6,286047005.4,N
1516866235.4,286047003.8,N
1516866255.2,286047001.3,N
1516866275.1,286047006.8,N
1516866276.0,286047006.8,N
1516866295.8,286047006.0,N
1516866315.6,286047002.2,N
1516866335.5,286047006.2,N
1516866355.3,286047001.6,N
1516866375.2,286047005.7,N
1516866395.9,286047002.3,N
1516866415.7,286047001.8,N
1516866435.6,286047001.9,N
1516866455.4,286047004.4,N
1516866475.2,286047001.9,N
1516866495.1,286047001.5,N
1516866496.0,286047001.5,N
1516866515.8,286047005.0,N
1516866535.7,286047006.8,Y
1516866555.5,286046996.8,P
1516866575.3,286046997.9,N
1516866595.2,286046991.3,N
1516866615.0,286046990.8,N
1516866615.9,286046990.8,N
1516866635.8,286046987.6,N
1516866655.6,286046990.9,N
1516866675.4,286046993.3,N
1516866695.3,286046998.6,N
1516866715.1,286047008.9,N
1516866735.8,286047009.8,N
1516866755.7,286047018.4,N
1516866775.5,286047021.5,N
1516866795.4,286047025.9,N
1516866815.2,286047024.6,N
1516866835.0,286047026.3,N
1516866835.9,286047026.3,N
1516866855.8,286047027.6,N
1516866875.6,286047029.3,N
1516866925.5,286047033.0,E
1516866935.4,286047018.3,N
1516866955.2,286047001.0,P
1516866975.1,286046996.8,N
1516866976.0,286046996.8,N
1516866995.8,286046990.3,N
1516867015.6,286046980.6,N
1516867035.5,286046969.2,N
1516867055.3,286046955.1,Y
1516867075.2,286046953.5,P
1516867095.0,286046950.6,N
1516867095.9,286046950.6,N
1516867115.7,286046956.9,N
1516867135.6,286046972.4,N
1516867155.4,286046974.8,N
1516867175.3,286046976.0,N
1516867195.1,286046977.0,N
1516867196.0,286046977.0,N
